Two Harbors, MN

10:43 AM CDT on July 22, 2017 (GMT -0500)
Helgeson

Weather History for KTWM - April, 2013

Change the Weather History Date:

Saturday, April 27, 2013

  Actual Average Record
Temperature  
Mean Temperature 45 °F -  
Max Temperature 62 °F 50 °F 82 °F (1952)
Min Temperature 28 °F 34 °F 17 °F (1975)
Degree Days  
Heating Degree Days 20    
Moisture  
Dew Point 31 °F    
Average Humidity 61    
Maximum Humidity 86    
Minimum Humidity 36    
Precipitation  
Precipitation 0.00 in - - ()
Sea Level Pressure  
Sea Level Pressure 30.01 in    
Wind  
Wind Speed 2 mph (South)    
Max Wind Speed 10 mph    
Max Gust Speed 10 mph    
Visibility 10 miles    
Events      
Averages and records for this station are not official NWS values.
T = Trace of Precipitation, MM = Missing Value Source: NWS Daily Summary

Daily Weather History Graph

Daily Weather History Graph

Search for Another Location

Airport or City:

Trip Planner

Search our weather history database for the weather conditions in past years. The results will help you decide how hot, cold, wet, or windy it might be!

Date:

Astronomy

Apr. 27, 2013 Rise Set
Actual Time 5:57 AM CDT 8:12 PM CDT
Civil Twilight 5:24 AM CDT 8:46 PM CDT
Nautical Twilight 4:42 AM CDT 9:27 PM CDT
Astronomical Twilight 3:55 AM CDT 10:15 PM CDT
Moon 10:49 PM CDT (4/27) 7:10 AM CDT (4/27)
Length of Visible Light 15h 22m
Length of Day
14h 15m
Waning Gibbous, 95% of the Moon is Illuminated
Apr 27
Waning Gibbous
May 2
Last Quarter
May 9
New
May 17
First Quarter
May 24
Full

Hourly Weather History & Observations

Time (CDT) Temp. Windchill Dew Point Humidity Pressure Visibility Wind Dir Wind Speed Gust Speed Precip Events Conditions
12:12 AM 32.0 °F - 26.6 °F 80% 30.10 in 10.0 mi Calm Calm - N/A   Clear
12:31 AM 32.0 °F 28.7 °F 26.6 °F 80% 30.10 in 10.0 mi WNW 3.5 mph - N/A   Clear
12:51 AM 33.8 °F - 26.6 °F 75% 30.10 in 10.0 mi Calm Calm - N/A   Clear
1:12 AM 33.8 °F - 26.6 °F 75% 30.09 in 10.0 mi Calm Calm - N/A   Clear
1:31 AM 30.2 °F 26.7 °F 26.6 °F 86% 30.09 in 10.0 mi NW 3.5 mph - N/A   Clear
1:51 AM 30.2 °F 23.4 °F 24.8 °F 80% 30.10 in 10.0 mi SSE 6.9 mph - N/A   Clear
2:12 AM 30.2 °F 24.3 °F 24.8 °F 80% 30.10 in 10.0 mi West 5.8 mph - N/A   Clear
2:31 AM 30.2 °F 26.7 °F 26.6 °F 86% 30.09 in 10.0 mi WNW 3.5 mph - N/A   Clear
2:51 AM 30.2 °F - 24.8 °F 80% 30.09 in 10.0 mi Calm Calm - N/A   Clear
3:11 AM 28.4 °F - 24.8 °F 86% 30.09 in 10.0 mi Calm Calm - N/A   Clear
3:31 AM 28.4 °F - 24.8 °F 86% 30.09 in 10.0 mi Calm Calm - N/A   Clear
3:51 AM 28.4 °F - 24.8 °F 86% 30.08 in 10.0 mi Calm Calm - N/A   Clear
4:11 AM 28.4 °F - 24.8 °F 86% 30.08 in 10.0 mi Calm Calm - N/A   Clear
4:31 AM 28.4 °F 24.6 °F 23.0 °F 80% 30.08 in 10.0 mi West 3.5 mph - N/A   Clear
4:52 AM 30.2 °F 26.7 °F 24.8 °F 80% 30.08 in 10.0 mi NW 3.5 mph - N/A   Clear
5:11 AM 32.0 °F 28.7 °F 26.6 °F 80% 30.08 in 10.0 mi NW 3.5 mph - N/A   Clear
5:31 AM 30.2 °F - 24.8 °F 80% 30.07 in 10.0 mi Calm Calm - N/A   Clear
5:52 AM 28.4 °F - 24.8 °F 86% 30.07 in 10.0 mi Calm Calm - N/A   Clear
6:11 AM 28.4 °F - 24.8 °F 86% 30.07 in 10.0 mi Calm Calm - N/A   Clear
6:31 AM 28.4 °F - 24.8 °F 86% 30.07 in 10.0 mi Calm Calm - N/A   Clear
6:52 AM 30.2 °F - 26.6 °F 86% 30.07 in 10.0 mi Calm Calm - N/A   Clear
7:11 AM 32.0 °F - 26.6 °F 80% 30.08 in 10.0 mi Calm Calm - N/A   Clear
7:31 AM 37.4 °F - 28.4 °F 70% 30.08 in 10.0 mi Calm Calm - N/A   Clear
7:52 AM 37.4 °F - 28.4 °F 70% 30.09 in 10.0 mi Calm Calm - N/A   Clear
8:11 AM 39.2 °F - 30.2 °F 70% 30.09 in 10.0 mi Calm Calm - N/A   Clear
8:31 AM 41.0 °F - 30.2 °F 65% 30.08 in 10.0 mi Calm Calm - N/A   Clear
8:52 AM 44.6 °F - 32.0 °F 61% 30.08 in 10.0 mi Calm Calm - N/A   Clear
9:11 AM 46.4 °F - 33.8 °F 62% 30.08 in 10.0 mi Calm Calm - N/A   Clear
9:32 AM 48.2 °F - 33.8 °F 58% 30.07 in 10.0 mi Calm Calm - N/A   Clear
9:51 AM 51.8 °F - 33.8 °F 50% 30.07 in 10.0 mi Calm Calm - N/A   Clear
10:11 AM 53.6 °F - 33.8 °F 47% 30.06 in 10.0 mi Calm Calm - N/A   Clear
10:32 AM 55.4 °F - 33.8 °F 44% 30.06 in 10.0 mi SSW 6.9 mph - N/A   Clear
10:51 AM 55.4 °F - 35.6 °F 47% 30.07 in 10.0 mi SSE 4.6 mph - N/A   Clear
11:11 AM 55.4 °F - 35.6 °F 47% 30.07 in 10.0 mi SSE 4.6 mph - N/A   Clear
11:32 AM 55.4 °F - 33.8 °F 44% 30.06 in 10.0 mi South 4.6 mph - N/A   Clear
11:51 AM 55.4 °F - 33.8 °F 44% 30.06 in 10.0 mi South 4.6 mph - N/A   Clear
12:11 PM 57.2 °F - 33.8 °F 41% 30.05 in 10.0 mi South 9.2 mph - N/A   Clear
12:32 PM 57.2 °F - 33.8 °F 41% 30.04 in 10.0 mi SSE 9.2 mph - N/A   Clear
12:51 PM 55.4 °F - 35.6 °F 47% 30.03 in 10.0 mi SE 4.6 mph - N/A   Clear
1:11 PM 57.2 °F - 33.8 °F 41% 30.03 in 10.0 mi South 8.1 mph - N/A   Clear
1:32 PM 59.0 °F - 33.8 °F 39% 30.02 in 10.0 mi South 9.2 mph - N/A   Clear
1:51 PM 59.0 °F - 33.8 °F 39% 30.01 in 10.0 mi South 10.4 mph - N/A   Clear
2:11 PM 60.8 °F - 33.8 °F 36% 30.00 in 10.0 mi South 8.1 mph - N/A   Clear
2:32 PM 60.8 °F - 33.8 °F 36% 29.99 in 10.0 mi South 6.9 mph 10.4 mph N/A   Clear
2:51 PM 60.8 °F - 35.6 °F 39% 29.98 in 10.0 mi South 5.8 mph - N/A   Clear
3:11 PM 60.8 °F - 35.6 °F 39% 29.98 in 10.0 mi SSE 4.6 mph - N/A   Clear
3:31 PM 60.8 °F - 35.6 °F 39% 29.97 in 10.0 mi SSE 4.6 mph - N/A   Clear
3:51 PM 60.8 °F - 35.6 °F 39% 29.96 in 10.0 mi SSE 3.5 mph - N/A   Clear
4:11 PM 60.8 °F - 35.6 °F 39% 29.95 in 10.0 mi SSE 4.6 mph - N/A   Clear
4:31 PM 60.8 °F - 35.6 °F 39% 29.95 in 10.0 mi SSE 3.5 mph - N/A   Clear
4:51 PM 60.8 °F - 35.6 °F 39% 29.94 in 10.0 mi SSE 4.6 mph - N/A   Clear
5:11 PM 60.8 °F - 35.6 °F 39% 29.93 in 10.0 mi Calm Calm - N/A   Clear
5:31 PM 62.6 °F - 35.6 °F 37% 29.93 in 10.0 mi Calm Calm - N/A   Clear
5:51 PM 60.8 °F - 35.6 °F 39% 29.92 in 10.0 mi Calm Calm - N/A   Clear
6:11 PM 60.8 °F - 33.8 °F 36% 29.92 in 10.0 mi SSE 3.5 mph - N/A   Clear
6:31 PM 55.4 °F - 35.6 °F 47% 29.91 in 10.0 mi SE 3.5 mph - N/A   Clear
6:51 PM 53.6 °F - 33.8 °F 47% 29.90 in 10.0 mi East 4.6 mph - N/A   Clear
7:11 PM 53.6 °F - 33.8 °F 47% 29.90 in 10.0 mi Calm Calm - N/A   Clear
7:31 PM 50.0 °F - 33.8 °F 54% 29.90 in 10.0 mi Calm Calm - N/A   Clear
7:51 PM 50.0 °F - 33.8 °F 54% 29.90 in 10.0 mi Calm Calm - N/A   Clear
8:11 PM 46.4 °F - 32.0 °F 57% 29.90 in 10.0 mi Calm Calm - N/A   Clear
8:31 PM 46.4 °F - 32.0 °F 57% 29.89 in 10.0 mi Calm Calm - N/A   Clear
8:51 PM 42.8 °F - 30.2 °F 61% 29.89 in 10.0 mi Calm Calm - N/A   Clear
9:12 PM 42.8 °F - 30.2 °F 61% 29.89 in 10.0 mi Calm Calm - N/A   Clear
9:31 PM 39.2 °F 37.0 °F 30.2 °F 70% 29.88 in 10.0 mi NNE 3.5 mph - N/A   Clear
9:51 PM 37.4 °F - 28.4 °F 70% 29.88 in 10.0 mi Calm Calm - N/A   Clear
10:12 PM 37.4 °F - 28.4 °F 70% 29.88 in 10.0 mi Calm Calm - N/A   Clear
10:31 PM 37.4 °F - 28.4 °F 70% 29.88 in 10.0 mi Calm Calm - N/A   Clear
10:51 PM 35.6 °F - 28.4 °F 75% 29.88 in 10.0 mi Calm Calm - N/A   Clear
11:12 PM 35.6 °F - 28.4 °F 75% 29.87 in 10.0 mi Calm Calm - N/A   Clear
11:31 PM 35.6 °F - 28.4 °F 75% 29.86 in 10.0 mi Calm Calm - N/A   Clear
11:51 PM 33.8 °F - 28.4 °F 81% 29.85 in 10.0 mi Calm Calm - N/A   Clear